Tracking 34706 objects as of 10-Jul-2026
HD Live streaming from Space Station
objects crossing your sky now

ORBCOMM FM 32

Track ORBCOMM FM 32 now!
10-day predictions
ORBCOMM FM 32 is classified as:


NORAD ID: 25982
Int'l Code: 1999-065C
Perigee: 771.3 km
Apogee: 778.7 km
Inclination: 45.0 °
Period: 100.2 minutes
Semi major axis: 7146 km
RCS: 0.8421 m2 (medium)
Launch date: December 4, 1999
Source: ORBCOMM (ORB)
Launch site: AIR FORCE EASTERN TEST RANGE (AFETR)
Your satellite tracking list
Your tracking list is empty




NASA's NSSDC Master Catalog

Two Line Element Set (TLE):
1 25982U 99065C   26191.02183145  .00000390  00000-0  17720-3 0  9990
2 25982  45.0156  65.1518 0005209 166.5641 193.5347 14.37163656390376
Source of the keplerian elements: AFSPC